Погода в Тургинове

Россия / Тверская область     56°29′52″N   35°59′55″E
темп.,
°C
ветер,
м/с
пор.,
м/с
влажн.,
%
обл.,
%
осадки,
мм/ч
давл.,
гПа
погр.,
м
5 декабря, вс
вс500:00−10ююз119763 0.0 101117
03:00−8в119679 0.1 101233
06:00−7всв249699 0.3 1011141
09:00−6всв3596100 0.9 1012231
12:00−5всв3493100 0.7 1014271
15:00−6св359477 1.0 1015251
18:00−8св3695100 0.2 1016227
21:00−10св3695100 0.3 1018211
6 декабря, пн
пн600:00−10св369495 0.3 1020214
03:00−10св359599 0.4 1020201
06:00−10всв3695100 0.2 1020223
09:00−9всв3695100 0.4 1021226
12:00−7в3492100 0.1 1021233
15:00−6в3594100 0.2 1021214
18:00−6в3697100 0.1 1020158
21:00−4вюв3894100 0.2 1020248
7 декабря, вт
вт700:00−4вюв3888100 0.0 1019234
03:00−4вюв4987100 0.0 1017309
06:00−4вюв41196100 1.2 1015450
09:00−3вюв41197100 4.3 1012500
12:00−1юв3896100 1.4 1011415
15:00−1юв2498100 1.8 1010260
18:00−1вюв1199100 0.5 101044
21:00−1св0099100 0.9 100930
8 декабря, ср
ср800:00−1ссз2498100 0.8 1009135
03:00−3сз3597100 1.2 1010192
06:00−5сз369765 0.1 1012131
09:00−9сз369750 0.1 1014104
12:00−8ссз259322 0.0 1016187
15:00−9с24957 0.0 1017105
18:00−13с239991 0.0 101954
21:00−13с269790 0.0 102099
9 декабря, чт
чт900:00−13ссв369763 0.0 1021119
03:00−11ссв3894100 0.0 1020225
06:00−9ссв4995100 0.4 1020290
09:00−8ссв41095100 1.8 1019318
12:00−7ссв4995100 1.3 1019326
15:00−7ссв4995100 3.1 1018337
18:00−7ссв4995100 0.9 1019379
21:00−7ссв389592 1.5 1018319